Jogging du foot de Olne
Jogging du foot de Olne 12/09/2014 - 8,2 km
Mise à jour le : 13/09/2014 à 15:31
Classement définitif, aucune correction possible
Place Nom Prénom Dossard Temps Vitesse Allure Place. Cat. Catégorie
1 VANDEPUTTE EDDY 76 29:29 16,68 3:35 1 Vétérans 1
2 DETHIER JULIEN 229 29:49 16,49 3:38 1 Séniors
3 VAN DEN BLINK ERIC 767 30:45 16,00 3:45 2 Vétérans 1
4 HERZET FREDERICK 4 31:05 15,83 3:47 2 Séniors
5 CASTERMANS VINCENT 833 31:26 15,65 3:50 3 Séniors
6 STRAET PAOLO 766 31:53 15,43 3:53 1 Espoirs Garçons
7 LACROSSE WILLIAM 819 32:04 15,34 3:54 4 Séniors
8 NERRINCK JOHAN 517 32:23 15,19 3:57 5 Séniors
9 BLANCHY GILLES 85 32:30 15,13 3:57 1 Vétérans 2
10 DELCOUR PHILIPPE 190 32:51 14,97 4:00 6 Séniors
11 COLLARD SERGE 145 32:57 14,93 4:01 3 Vétérans 1
12 TIMMERMANN ALEXANDRE 639 32:59 14,91 4:01 7 Séniors
13 FICHER PIERRE 864 33:11 14,82 4:02 8 Séniors
14 GERARD XAVIER 863 33:14 14,80 4:03 9 Séniors
15 BEUKEN SERGE 80 33:17 14,78 4:03 4 Vétérans 1
16 WINKIN CHRISTOPHE 840 33:35 14,64 4:05 10 Séniors
17 ROZEIN JURGEN 589 33:39 14,62 4:06 2 Vétérans 2
18 BLANCHY REGIS 86 33:44 14,58 4:06 11 Séniors
19 DEMONCEAU JEAN LUC 214 33:46 14,56 4:07 5 Vétérans 1
20 REULAND JULIEN 790 33:49 14,54 4:07 12 Séniors
21 DESERT QUENTIN 810 33:51 14,53 4:07 2 Espoirs Garçons
22 POHL DIDIER 754 33:54 14,51 4:08 3 Vétérans 2
23 LIÉGEOIS JACKY 794 34:05 14,43 4:09 4 Vétérans 2
24 LEJACQUES THIBAUT 878 34:07 14,42 4:09 13 Séniors
25 NICOLAS FRANCIS 518 34:11 14,39 4:10 6 Vétérans 1
26 ZIMMERMAN DAVID 849 34:14 14,37 4:10 14 Séniors
27 HECK NICOLAS 768 34:20 14,33 4:11 3 Espoirs Garçons
28 AUTUNNO ANTOINE 824 34:25 14,29 4:11 15 Séniors
29 LACROIX FRANCOIS 793 34:31 14,25 4:12 16 Séniors
30 BECKERS LOIC 66 34:52 14,11 4:15 17 Séniors
31 DELREZ DIDIER 203 34:56 14,08 4:15 7 Vétérans 1
32 WALRAFF WALLY 678 35:04 14,03 4:16 8 Vétérans 1
33 LOURTIE THIBAUT 463 35:07 14,01 4:16 18 Séniors
34 VANHULST BENOIT 662 35:09 13,99 4:17 19 Séniors
35 WERTZ FLORENT 685 35:12 13,98 4:17 4 Espoirs Garçons
36 TALBOT LUDOVIC 623 35:24 13,90 4:19 20 Séniors
37 CORMAN XAVIER 781 35:32 13,85 4:20 21 Séniors
38 DORTU DAMIEN 813 35:35 13,82 4:20 22 Séniors
39 HENRARD CEDRIC 348 35:38 13,81 4:20 23 Séniors
40 GEROMBOUX PIERRE 313 35:43 13,77 4:21 24 Séniors
41 NAWYN BENJAMIN 5 35:48 13,74 4:21 9 Vétérans 1
42 DELVAUX GARY 208 35:55 13,69 4:22 25 Séniors
43 LENSSEN PIERRE 814 36:01 13,66 4:23 26 Séniors
44 DEJARDIN FREDERIC 187 36:06 13,62 4:24 10 Vétérans 1
45 GEERTS DIRM 753 36:14 13,58 4:25 27 Séniors
46 OURY PATRICE 530 36:15 13,57 4:25 11 Vétérans 1
47 ESTE SEBASTIEN 266 36:17 13,55 4:25 28 Séniors
48 RAHIER JULIEN 784 36:21 13,53 4:26 29 Séniors
49 DETHIER JEROME 231 36:27 13,49 4:26 30 Séniors
50 HENDRICK JULIEN 347 36:29 13,48 4:27 31 Séniors
51 JOURDAN GUY 837 36:38 13,43 4:28 32 Séniors
52 SCHAUS JEROME 594 36:41 13,41 4:28 33 Séniors
53 VERVIER ARNAUD 846 36:45 13,39 4:28 34 Séniors
54 RANDAXHE ARNAUD 803 36:46 13,38 4:29 5 Espoirs Garçons
55 DOURCY ALAIN 851 36:49 13,36 4:29 35 Séniors
56 DAMBLON PATRICK 167 36:55 13,32 4:30 12 Vétérans 1
57 BAAR GREGORY 49 37:02 13,28 4:30 36 Séniors
58 BEUKEN DIDIER 81 37:06 13,26 4:31 5 Vétérans 2
59 BURY MAXIME 855 37:08 13,25 4:31 37 Séniors
60 TROUDI KAMEL 643 37:10 13,23 4:32 6 Vétérans 2
61 SOHET JEAN-MICHEL 866 37:13 13,22 4:32 38 Séniors
62 DUPUIS GAETAN 698 37:19 13,18 4:33 39 Séniors
63 JUSTE CHRISTIAAN 398 37:23 13,16 4:33 7 Vétérans 2
64 HEINRICHS GREGORY 346 37:29 13,12 4:34 40 Séniors
65 VERVIER SIMON 854 37:38 13,07 4:35 41 Séniors
66 CARIA NANDO 132 37:40 13,06 4:35 1 Vétérans 3
67 THONART MARC 788 37:42 13,05 4:35 13 Vétérans 1
68 DESMECHT JAMES 224 37:45 13,03 4:36 14 Vétérans 1
69 JASPAR CHRISTIAN 383 37:47 13,02 4:36 2 Vétérans 3
70 VERREUX JOHAN 789 37:48 13,01 4:36 42 Séniors
71 ANSAY WILLIAM 874 37:50 13,00 4:36 43 Séniors
72 DEGUELDRE VINCENT 186 37:51 12,99 4:37 44 Séniors
73 BROUWERS MICHAEL 120 37:52 12,99 4:37 45 Séniors
74 FRANCOIS JORDAN 295 37:54 12,98 4:37 46 Séniors
75 LEMAIRE GUILLAUME 441 37:55 12,97 4:37 47 Séniors
76 DONNEAU PIERRE 820 37:56 12,96 4:37 48 Séniors
77 NOIRHOMME PIERRE 791 38:02 12,93 4:38 49 Séniors
78 BECKERS THOMAS 67 38:13 12,87 4:39 6 Espoirs Garçons
79 DEWEZ JULIEN 875 38:15 12,86 4:39 7 Espoirs Garçons
80 LECLERCQ JEAN-PHILIPPE 428 38:17 12,85 4:40 50 Séniors
81 SCHOFFENIELS AEXANDRE 787 38:19 12,84 4:40 8 Espoirs Garçons
82 CANALES ALBERTO 130 38:21 12,83 4:40 8 Vétérans 2
83 SCHEEN ALPHONSE 798 38:30 12,78 4:41 15 Vétérans 1
84 BOUMARAH ACHMED 891 38:33 12,76 4:42 51 Séniors
85 PIRENNE DAVID 539 38:35 12,75 4:42 52 Séniors
86 HAPPART GREGORY 341 38:40 12,72 4:43 16 Vétérans 1
87 TILKIN GIL 832 38:44 12,70 4:43 53 Séniors
88 PEIFFER JOAKIM 822 38:47 12,68 4:43 54 Séniors
89 COLSON DAVID 148 38:49 12,67 4:44 55 Séniors
90 VANBRABANT RAPHAEL 653 38:53 12,65 4:44 56 Séniors
91 BROUWIER PIERRE 121 38:57 12,63 4:45 3 Vétérans 3
92 HALLEUX JEAN MARIE 337 39:02 12,60 4:45 17 Vétérans 1
93 BOSCO TOM 706 39:04 12,59 4:45 57 Séniors
94 REMACLE OLIVIER 561 39:06 12,58 4:46 58 Séniors
95 LIEGEOIS MANON 449 39:07 12,57 4:46 1 Dames
96 ANDRIEN TONY 51 39:09 12,56 4:46 9 Vétérans 2
97 RECKER MARCEL 709 39:10 12,56 4:46 10 Vétérans 2
98 NYSSEN PIERRE 723 39:14 12,54 4:47 18 Vétérans 1
99 THONNARD JEAN-YVES 633 39:17 12,52 4:47 11 Vétérans 2
100 PIELA RUDY 537 39:24 12,48 4:48 59 Séniors
101 VAN TOMME YVES 751 39:29 12,46 4:49 12 Vétérans 2
102 THIELEN ALAIN 630 39:31 12,45 4:49 19 Vétérans 1
103 FORLIN FREDERIC 585 39:43 12,39 4:50 20 Vétérans 1
104 DELMOITIEZ STEPHANE 858 39:51 12,35 4:51 60 Séniors
105 HANS VINCENT 812 39:57 12,31 4:52 21 Vétérans 1
106 BROUWIER MICHAEL 770 39:59 12,30 4:52 61 Séniors
107 DEVILLE MICHEL 234 40:01 12,29 4:52 13 Vétérans 2
108 WANSART NICOLAS 877 40:04 12,28 4:53 62 Séniors
109 DELOYER THOMAS 202 40:10 12,25 4:53 9 Espoirs Garçons
110 CARL ROGER 764 40:17 12,21 4:54 14 Vétérans 2
111 CUPERS PHILIPPE 159 40:19 12,20 4:55 22 Vétérans 1
112 LAMING MARY 861 40:21 12,19 4:55 2 Dames
113 FRANCHIN LUDOVIC 783 40:24 12,17 4:55 63 Séniors
114 DEVILLE YVES 800 40:27 12,16 4:56 23 Vétérans 1
115 CLERFAYS HUBERT 142 40:29 12,15 4:56 15 Vétérans 2
116 JUNGBLUTH RAYMOND 396 40:31 12,14 4:56 4 Vétérans 3
117 EVRARD JOHAN 270 40:34 12,12 4:56 64 Séniors
118 HANSEZ JOEL 881 40:36 12,12 4:57 24 Vétérans 1
119 WOUTERS PAUL 876 40:38 12,11 4:57 25 Vétérans 1
120 HEUSCH VINCENT 357 40:40 12,09 4:57 26 Vétérans 1
121 LEGROS AXEL 779 40:43 12,08 4:57 10 Espoirs Garçons
122 LEGROS FRANCIS 431 40:45 12,07 4:58 27 Vétérans 1
123 DONNEAU BENOIT 817 40:47 12,06 4:58 65 Séniors
124 PIRARD PHILIPPE 869 40:50 12,05 4:58 66 Séniors
125 KILESSE REMI 404 40:53 12,03 4:59 67 Séniors
126 KILESSE MATHIEU 716 40:56 12,02 4:59 68 Séniors
127 PIRARD VINCENT 847 40:58 12,01 4:59 69 Séniors
128 LORQUET SYLVIE 741 40:59 12,00 4:59 1 Ainées 2
129 FONTAINE SERGE 291 41:01 11,99 5:00 28 Vétérans 1
130 LORQUET JEAN-MARC 461 41:03 11,98 5:00 16 Vétérans 2
131 CRASSON VINCENT 834 41:05 11,97 5:00 17 Vétérans 2
132 ERNST ANDRE 265 41:06 11,97 5:00 18 Vétérans 2
133 CARABIN MARTINE 131 41:12 11,94 5:01 2 Ainées 2
134 GEORGES TONY 312 41:18 11,91 5:02 70 Séniors
135 MOUREAU CAROLE 509 41:22 11,89 5:02 1 Ainées 1
136 SAVELBERG PASCAL 752 41:40 11,81 5:04 71 Séniors
137 SOMJA JEAN-PHILIPPE 613 41:42 11,80 5:05 72 Séniors
138 DELNEUVILLE ERIC 200 41:50 11,76 5:06 29 Vétérans 1
139 LAMBERT CHRISTOPHE 413 41:56 11,73 5:06 73 Séniors
140 BALUS JOSE 58 41:58 11,72 5:07 5 Vétérans 3
141 WATAR FRANCIS 892 42:02 11,70 5:07 30 Vétérans 1
142 FALLA ARNAUD 809 42:22 11,61 5:10 74 Séniors
143 DEMOLLIN MARC 212 42:25 11,60 5:10 19 Vétérans 2
144 HURLET LUCIEN 724 42:27 11,59 5:10 20 Vétérans 2
145 AGUS PAOLO 41 42:29 11,58 5:10 31 Vétérans 1
146 STEFFENS BENOIT 868 42:32 11,56 5:11 75 Séniors
147 PONS ANNE 550 42:35 11,55 5:11 2 Ainées 1
148 HORBURG GEOFFREY 825 42:37 11,54 5:11 76 Séniors
149 LEDOUX BERNARD 808 42:40 11,53 5:12 77 Séniors
150 LAMY STEPHANIE 416 42:47 11,50 5:13 3 Ainées 1
151 HENRARD HENRI 349 43:02 11,43 5:14 21 Vétérans 2
152 DUBOIS PASCAL 799 43:04 11,42 5:15 78 Séniors
153 FRANCK LIONEL 843 43:08 11,41 5:15 79 Séniors
154 BRAGARD JEAN MICHEL 756 43:10 11,40 5:15 22 Vétérans 2
155 BECKERS BENOIT 12 43:14 11,38 5:16 32 Vétérans 1
156 LEGAU FREDERICK 811 43:23 11,34 5:17 80 Séniors
157 VANAUBEL NATHALIE 862 43:25 11,33 5:17 3 Dames
158 SCAFF ETIENNE 830 43:27 11,32 5:17 11 Espoirs Garçons
159 SLAFF MATHIEU 828 43:29 11,31 5:18 81 Séniors
160 LEROY ROMAIN 777 43:30 11,31 5:18 12 Espoirs Garçons
161 KARIGER THOMAS 842 43:31 11,30 5:18 13 Espoirs Garçons
162 BRAGARD GERGORY 890 43:39 11,27 5:19 82 Séniors
163 CASTELA DELPHINE 795 43:42 11,26 5:19 4 Dames
164 COLLIGNON NATHAN 780 43:45 11,24 5:20 14 Espoirs Garçons
165 LEJEUNE DYLAN 769 43:48 11,23 5:20 15 Espoirs Garçons
166 HAUSEUX CHRISTOPHE 796 43:53 11,21 5:21 23 Vétérans 2
167 MAGNETTE YVES 470 43:56 11,20 5:21 24 Vétérans 2
168 MANSET ADELINE 474 44:06 11,16 5:22 5 Dames
169 PESSER ALAIN 535 44:16 11,11 5:23 33 Vétérans 1
170 STABEL PHILIPPE 618 44:21 11,09 5:24 34 Vétérans 1
171 CHEBIL RAMI 139 44:23 11,08 5:24 83 Séniors
172 MOHON OPHELIE 501 44:26 11,07 5:25 1 Espoirs Filles
173 CORMAN JEAN-FRANCOIS 153 44:27 11,07 5:25 84 Séniors
174 LORQUET MARC 460 44:31 11,05 5:25 35 Vétérans 1
175 DEWIL JEAN 836 44:33 11,04 5:25 25 Vétérans 2
176 CHACON RUIZ LUIS 818 44:42 11,00 5:27 36 Vétérans 1
177 SCHREURS BERNARD 600 44:52 10,96 5:28 85 Séniors
178 ROYEN STEPHANE 792 45:14 10,88 5:31 37 Vétérans 1
179 LOUIS RENAUD 848 45:35 10,79 5:33 38 Vétérans 1
180 VANDEGAAR TONY 655 45:37 10,78 5:33 6 Vétérans 3
181 VOSS MURIEL 672 45:44 10,76 5:34 4 Ainées 1
182 LONNEUX MARCEL 458 45:47 10,75 5:35 26 Vétérans 2
183 VOSS JEAN-LOUIS 673 45:49 10,74 5:35 7 Vétérans 3
184 BYLEVELD AURORE 126 45:52 10,73 5:35 6 Dames
185 BARTHOLOME YVES 827 45:55 10,71 5:36 86 Séniors
186 MOSSOUX PHILIPPE 508 46:01 10,69 5:36 27 Vétérans 2
187 GOOR SYLVIANE 804 46:14 10,64 5:38 5 Ainées 1
188 DELCOUR SYLVIE 865 46:16 10,63 5:38 6 Ainées 1
189 PAQUAY BRUNO 815 46:17 10,63 5:38 39 Vétérans 1
190 COLLARD OLIVIER 893 46:26 10,59 5:39 87 Séniors
191 VANDEN BULLK ARNAUD 894 46:28 10,59 5:40 88 Séniors
192 FETTWEIS THIERRY 281 46:36 10,56 5:41 28 Vétérans 2
193 DUMONT GAETAN 778 46:41 10,54 5:41 16 Espoirs Garçons
194 MEYS BERNARD 497 46:44 10,53 5:42 40 Vétérans 1
195 CHEFNEUX SEBASTIEN 140 46:47 10,52 5:42 89 Séniors
196 LOMBARD ARNAUD 880 46:49 10,51 5:42 90 Séniors
197 DELOYER JEAN PAUL 873 47:00 10,46 5:44 41 Vétérans 1
198 TIMMERMANN GHISLAIN 821 47:05 10,45 5:44 29 Vétérans 2
199 RUIZ SABRINA 801 47:33 10,35 5:47 7 Dames
200 TERWAGNE PIERRE 838 47:47 10,30 5:49 91 Séniors
201 HUTSCHEMACKERS GUY 826 47:50 10,28 5:50 8 Vétérans 3
202 VAN LAAR CHRISTINE 652 47:57 10,26 5:50 3 Ainées 2
203 RENAERS STEPHANE 562 47:57 10,26 5:50 42 Vétérans 1
204 DUYCKAERTS ERIC 254 48:15 10,19 5:53 43 Vétérans 1
205 WEBER GILBERTE 682 48:24 10,16 5:54 1 Ainées 3
206 HENRARD OLIVIER 844 48:36 10,12 5:55 92 Séniors
207 DEVOS JORDAN 776 48:44 10,10 5:56 17 Espoirs Garçons
208 BONAVENTURE JEREMY 856 48:45 10,09 5:56 93 Séniors
209 WITTEBROOD DIDIER 841 48:47 10,08 5:57 94 Séniors
210 NAWAY LUDOVIC 870 48:49 10,08 5:57 95 Séniors
211 GARROY MAXIME 755 48:50 10,07 5:57 96 Séniors
212 LAMBERT BORIS 415 48:51 10,07 5:57 97 Séniors
213 BRAGARD EDMEE 106 48:52 10,07 5:57 4 Ainées 2
214 JUPRELLE VALERY 871 48:54 10,06 5:57 98 Séniors
215 DEGUELDRE PATRICK 839 48:55 10,06 5:57 44 Vétérans 1
216 DEFLANDRE JEAN MARIE 183 48:56 10,05 5:58 30 Vétérans 2
217 MEYS CEDRIC 867 48:59 10,04 5:58 99 Séniors
218 STRAET JOSIANE 802 49:02 10,03 5:58 7 Ainées 1
219 BRUTINEL MURIEL 835 49:19 9,97 6:00 8 Dames
220 PIRLET AMÉLIE 860 49:24 9,96 6:01 9 Dames
221 VANABEL MARILYN 807 49:56 9,85 6:05 10 Dames
222 EL BALDI FATIHA 256 50:11 9,80 6:07 8 Ainées 1
223 BRAGARD CHANTAL 109 50:22 9,77 6:08 5 Ainées 2
224 MARCHAL AMAURY 477 50:29 9,74 6:09 100 Séniors
225 BOUHON MIKE 104 50:35 9,73 6:10 31 Vétérans 2
226 LAMBERT HENRI 872 50:39 9,71 6:10 45 Vétérans 1
227 CHEVOLET ANGELIQUE 805 50:42 9,70 6:11 11 Dames
228 ANCION JULIEN 806 50:44 9,70 6:11 101 Séniors
229 PREUMONT MICHEL 555 51:03 9,63 6:13 9 Vétérans 3
230 BOLETTE FANNY 763 51:14 9,60 6:14 12 Dames
231 KREMER JOEL 409 51:16 9,60 6:15 46 Vétérans 1
232 JONLET LIONEL 388 51:19 9,59 6:15 102 Séniors
233 ABAD LAMAS HAYDEE PATRICIA 37 51:20 9,58 6:15 6 Ainées 2
234 DELAIRESSE GILBERT 782 51:25 9,57 6:16 1 Vétérans 4
235 RIGO JEAN FRANCOIS 883 51:29 9,55 6:16 47 Vétérans 1
236 BACKES SARAH 52 51:34 9,54 6:17 13 Dames
237 GENOT OLIVIER 760 51:43 9,51 6:18 48 Vétérans 1
238 TROMME ELIE 850 52:30 9,37 6:24 18 Espoirs Garçons
239 BAGUETTE GUILLAUME 885 52:45 9,33 6:26 19 Espoirs Garçons
240 BAGUETTE IVAN 884 52:47 9,32 6:26 49 Vétérans 1
241 LAMBERT AUDELINE 888 53:00 9,28 6:27 14 Dames
242 GIACCOMAZZI ISABELLE 315 53:14 9,24 6:29 9 Ainées 1
243 MULIER ERIC 10 53:22 9,22 6:30 50 Vétérans 1
244 DUMBRUCH VIRGINIE 882 53:23 9,22 6:30 15 Dames
245 RIGA RENE 574 53:26 9,20 6:31 2 Vétérans 4
246 PIRE MICHEL 765 53:35 9,18 6:32 51 Vétérans 1
247 LAVERGNE GAETAN 757 53:36 9,18 6:32 52 Vétérans 1
248 KEUTIENS YVES 857 53:38 9,17 6:32 103 Séniors
249 FRYNS GILBERT 299 54:22 9,05 6:37 10 Vétérans 3
250 SCHERPENBERGHS LAURENCE 887 54:38 9,00 6:39 10 Ainées 1
251 NOLEVAUX DOMINIQUE 886 54:39 9,00 6:39 53 Vétérans 1
252 WILKIN ANDRE 690 54:50 8,97 6:41 11 Vétérans 3
253 BRANDT ARLETTE 112 55:21 8,89 6:45 2 Ainées 3
254 SCEVENELS AURELIE 786 55:29 8,87 6:46 16 Dames
255 MAQUINAY FELICIEN 475 55:49 8,81 6:48 32 Vétérans 2
256 ALAN DEVOS 775 56:58 8,63 6:56 20 Espoirs Garçons
257 DENOEL ESTELLE 762 57:37 8,54 7:01 11 Ainées 1
258 GROSJEAN BERNADETTE 785 57:40 8,53 7:02 3 Ainées 3
259 HERTAY FRANCOISE 845 57:42 8,53 7:02 12 Ainées 1
260 FRISSCHEN JACQUES 298 57:43 8,52 7:02 3 Vétérans 4
261 LAMBERT BRIGITTE 889 57:51 8,50 7:03 4 Ainées 3
262 PIRARD SABINE 816 57:58 8,49 7:04 7 Ainées 2
263 HAHN BAPTISTE 797 58:21 8,43 7:07 21 Espoirs Garçons
264 LEJEUNE ZABOU 823 58:45 8,37 7:09 8 Ainées 2
265 SCHMITS CHARLOTTE 759 59:01 8,34 7:11 17 Dames
266 VANDENBERGH CHRISTEL 656 59:03 8,33 7:12 13 Ainées 1
267 POLYS RAPHAEL 771 59:05 8,33 7:12 104 Séniors
268 SCHMITS EMILIE 758 59:06 8,32 7:12 18 Dames
269 GERON CHRISTINE 829 1:00:05 8,19 7:19 14 Ainées 1
270 FRANSSEN HELENE 879 1:00:17 8,16 7:21 19 Dames
271 HURDEBISE VANESSA 773 1:01:13 8,04 7:28 15 Ainées 1
272 PIRARD PASCALE 774 1:01:15 8,03 7:28 16 Ainées 1
273 CALIFICE HUBERTE 128 1:03:05 7,80 7:41 5 Ainées 3
274 CHEFNEUX VALERIE 852 1:05:15 7,54 7:57 17 Ainées 1
275 CHEFNEUX ISABELLE 853 1:05:16 7,54 7:57 18 Ainées 1